FENGYUN 1C DEB, 31688

Orbit data source: Space-Track

FENGYUN 1C DEB, 31688 is space debris in SSO originally from a launch on Mon, 10 May 1999 UTC launched from the Taiyaun Space Center, China (TSC). Fengyun 1C debris stems from the Chinese weather satellite Fengyun-1C, which was intentionally destroyed by a Chinese anti-satellite missile in 2007. This event dramatically increased the amount of space debris, with thousands of trackable fragments posing hazards to satellites and human spaceflight. The Fengyun 1C debris cloud has become a focal point in discussions about space sustainability and the need for international regulations to prevent the creation of new debris.

Loading next visibility...
Identifier
31688, 1999-025CCW
Orbit
SSO
Country
Flag of CNCN / PRC
Related business
Manufacturer
Unknown
Mission
Spacecraft
Bus & Motor
Unknown
Mass
Unknown
Launch date (UTC)
1999-05-10 (27 years ago)
Launch vehicle
Unknown
Launch site
Taiyaun Space Center, China (TSC)
Object type
Payload
Rocket body
Debris
Shape & HBR
Unknown shape, 0.1 m
Radar Cross Section
Small (<0.1 m²)

Expand to show TLE details & history
Last TLE update: 2 days ago

TLE from 2 days ago
0 FENGYUN 1C DEB
1 31688U 99025CCW 26205.93378435  .00000381  00000-0  27024-3 0  9998
2 31688  98.9346 260.9588 0074095 238.4384 120.9533 14.02406349984201
Epoch: 2026-07-24T22:24Z
TLE epoch observation values (Epoch: 2026-07-24T22:24:38.967Z)
Latitude
-0.00001°
Longitude
-17.85687°
Altitude
916.336 km
Speed
7.38 km/s
True Right ascension
17h 23m 50s
True Declination
0° 00' 00"
Sunlit
Object was in full shadow at epoch
Visualization orbit readout
Latitude
Unknown
Longitude
Unknown
Altitude
Unknown
Speed
Unknown
Apparent Right ascension
Unknown
Apparent Declination
Unknown
Sunlit
N/A
Visualization observer readout
Local Sidereal Time
19:52:02
Azimuth
Unknown
Elevation
Unknown
Doppler factor
Unknown
Orbital elements
Apogee altitude
936.466 km
Perigee altitude
828.868 km
Semi-major axis
7,260.804 km
Eccentricity
0.00741
Inclination
98.9346°
RAAN
260.9588°
Arg. of periapsis
238.4384°
True anomaly
121.67798°
Mean anomaly
120.9533°
Eccentric anomaly
121.31598°
Mean motion
3.50805 °/min
Orbital period
102.62 mins
BSTAR
0.00027024
Loading maneuver chart data...
Computing Atmospheric mass density...
Loading historical data...
Loading historical data...
Loading historical data...
Loading historical data...
Loading historical data...
Loading historical data...
Loading historical data...

Documentation

Showing up to 5 results
|